Portada
METAR-TAF:

METAR-TAF

Aeroports :

Monte Malanotte

Prato Nevoso, Itàlia

latitud: 44-15N, longitud: 007-48E, altitud: 1741 m

Observació

L'informe es va fer fa 1 hora i 3 minuts, a les 17:55 UTC
Vent 11 kt del Est/Sud-Est
Temperatura 21°C
Humitat 69%
Pressió 1011 hPa
Visibilitat 10 km o més
sense núvols per sota de 1500 mi sense presència de cumulonimbus.

METAR: LIMY 021755Z 11011KT CAVOK 21/15 Q1011 RMK FEW FEW070 VAL NIL VIS MIN 9999

Hora: 20:58 (18:58 UTC)


TAF: manca

Observacions i pronòstics meteorològics de més de 4000 aeroports (METAR i TAF).

Les estacions disponibles són els punts grocs i vermells al mapa.

Posi el ratolí al punt desitjat per veure el nom de l'estació.

Feu clic per veure les observacions i els pronòstics meteorològics.

Per canviar el mapa: feu clic els botons verds amb una creu de color negre per apropar; al botó verd amb un guió per allunyar la imatge; o en les fletxes verdes per a mapes adjacents.


METAR-TAF: